Location: Hilton Head Island
(32.2163°N, 80.7526°W)
Time: 23:25:44
(UTC-04:00)

Transit 2A Rocket - Pass Details

Date: 10 February 2026
Orbit: 583 x 900 km, 66.7° (Epoch: 8 March)

Event Time Altitude Azimuth Distance (km) Brightness Sun altitude
Rises 03:27:52 0° 337° (NNW) 3,336 - -47.3°
Reaches altitude 10° 03:30:25 10° 339° (NNW) 2,353 - -46.7°
Maximum altitude 03:35:47 69° 63° (ENE) 787 - -45.6°
Drops below altitude 10° 03:40:37 10° 147° (SSE) 2,128 - -44.6°
Sets 03:42:50 0° 149° (SSE) 2,993 - -44.2°
